GFSSW_850_thetae_000.txt.gz
Theta_e
311 312 312 312 312 313 313 312 312 311 310 308 307 307 308 308 311 310 311 312 311 315 313 312 312 313 316 316 316 314 310 313 318 322 322 320 319 328 329 328 327 328 333 333 334
312 312 313 313 313 313 313 312 312 311 309 307 308 308 308 311 311 312 312 311 311 315 315 312 315 316 316 317 317 312 310 312 312 314 322 324 322 326 328 327 326 327 333 335 335
313 313 313 313 313 313 313 312 312 311 309 308 308 308 310 312 313 314 312 316 315 315 315 315 314 314 317 316 316 312 312 310 314 315 317 318 316 323 326 326 326 330 336 338 335
313 313 313 313 313 313 313 312 311 310 308 308 308 310 312 312 317 317 318 318 317 317 316 316 315 315 316 315 315 312 312 311 313 314 315 317 316 325 322 324 327 325 328 335 329
314 313 312 312 313 313 313 312 311 309 308 308 309 311 312 314 316 317 316 316 316 317 317 315 314 316 316 315 313 312 311 312 312 313 314 314 316 321 317 325 326 328 329 329 328
313 312 311 312 312 313 312 311 310 309 308 308 310 311 313 316 318 318 316 316 316 317 316 316 315 315 317 312 314 313 311 311 313 311 312 312 313 315 315 324 326 327 327 327 326
313 313 311 312 312 312 311 310 309 308 308 310 311 313 314 316 317 317 316 316 316 316 317 317 316 317 318 312 312 312 311 311 312 314 312 316 314 313 318 327 326 326 327 327 328
315 314 312 312 312 311 310 309 308 309 310 311 313 314 314 316 317 318 316 316 316 316 317 317 317 317 315 313 313 311 309 311 312 314 313 312 310 310 323 327 325 324 323 323 324
315 314 312 312 311 310 309 309 309 311 312 314 316 316 315 316 317 317 316 316 317 318 318 316 316 314 312 310 310 309 311 314 315 313 314 312 314 313 315 326 323 324 324 324 324
315 314 312 311 310 309 309 310 311 312 314 316 319 316 314 317 316 316 316 315 318 318 317 318 316 311 310 309 311 311 313 312 314 313 312 312 316 314 316 322 319 322 324 324 325
315 312 311 311 310 310 311 312 316 316 317 313 313 315 317 317 315 316 316 316 318 318 315 315 312 312 313 312 311 313 314 313 312 313 314 315 315 313 318 318 318 319 321 322 324
314 312 311 310 310 311 312 319 326 323 320 314 314 315 318 318 316 316 316 318 317 315 315 313 314 314 315 315 315 314 314 314 315 314 315 316 313 312 314 316 317 319 322 324 325
314 311 310 311 311 313 317 320 324 324 319 316 317 318 318 317 316 317 318 319 316 316 314 314 315 315 316 316 317 318 316 316 316 316 315 316 316 314 315 317 318 319 321 322 321
313 311 311 312 313 314 316 322 325 323 311 315 316 316 318 318 317 318 318 318 315 313 314 317 316 316 315 316 316 319 317 315 316 317 319 314 320 316 316 317 316 317 319 319 319
313 312 312 314 318 320 325 318 321 322 312 313 316 317 318 318 316 318 320 319 315 315 315 318 317 316 316 317 318 319 315 315 314 313 314 316 317 314 316 318 317 316 317 317 317
313 313 315 322 323 326 318 318 319 314 314 315 316 316 317 317 317 318 319 318 317 315 314 316 316 316 317 316 316 316 317 316 315 315 316 316 315 315 315 316 316 316 317 316 316
315 315 316 324 327 320 319 317 312 315 316 315 316 316 316 316 316 315 314 314 316 317 317 315 316 314 316 318 315 315 316 318 319 315 318 316 317 315 314 314 316 316 317 316 316
318 318 319 325 321 320 320 311 317 317 316 314 316 315 318 318 317 315 315 315 314 315 315 317 315 316 314 317 317 315 316 317 320 316 318 315 319 316 312 315 318 318 317 316 316
317 319 324 318 318 319 318 309 315 315 315 316 317 318 319 318 317 316 315 315 315 315 319 317 317 315 315 315 316 316 314 313 314 311 315 314 315 314 313 313 315 316 315 315 315
318 323 318 316 317 318 313 314 320 319 317 316 317 317 318 318 318 317 318 317 317 316 314 316 316 315 315 316 314 315 312 314 310 314 315 314 315 315 315 314 313 312 314 314 313
321 319 319 317 317 317 309 315 320 321 319 317 317 317 317 317 317 318 318 318 318 318 316 314 313 314 315 315 315 315 314 311 311 309 311 311 314 310 313 314 311 310 313 313 313
320 310 318 316 312 310 311 318 321 318 318 320 318 317 316 319 320 320 319 318 317 318 316 314 312 312 315 314 314 314 314 309 307 312 306 305 309 307 307 310 311 310 310 310 310
317 323 321 316 307 303 311 319 319 317 318 319 320 319 318 319 320 320 319 317 314 316 315 313 312 313 315 313 312 316 315 310 307 306 312 308 309 308 309 308 309 309 308 308 308
317 317 324 321 310 310 314 316 319 319 319 319 319 318 318 320 318 319 320 317 314 315 316 313 311 312 313 313 311 313 315 311 310 307 309 308 310 312 309 307 307 308 308 308 308
317 316 320 311 312 311 312 318 319 320 319 318 319 319 319 321 320 320 319 316 315 316 315 310 313 312 312 311 312 312 312 312 312 310 311 311 309 309 309 307 308 309 308 308 308
319 315 315 313 317 317 314 317 318 319 319 319 318 319 318 316 317 318 316 313 313 315 313 307 309 308 315 311 309 312 310 310 311 311 310 312 311 310 309 309 308 309 309 308 308
321 320 319 308 310 315 313 319 318 317 319 318 317 316 317 318 317 315 314 313 314 314 309 305 304 304 304 306 305 306 308 309 309 309 309 311 310 308 308 308 309 309 309 310 308

GFSSW_850_thetae_006.txt.gz
Theta_e
309 310 310 311 312 312 312 312 312 313 312 311 310 308 307 307 307 309 310 311 311 311 313 311 312 313 315 314 316 316 318 320 326 328 331 330 329 327 326 329 332 330 335 339 340
309 310 310 311 312 313 313 312 312 313 312 311 310 307 307 308 310 312 314 312 311 312 313 313 314 314 316 316 317 318 320 323 325 327 327 325 325 327 330 331 330 334 338 340 338
309 310 311 312 313 312 312 312 312 312 312 311 308 307 307 309 314 319 313 311 311 314 313 314 314 316 316 317 318 319 320 319 320 324 324 324 324 326 329 331 329 335 338 339 338
309 310 312 313 313 311 311 312 312 312 311 310 308 307 308 310 319 317 313 311 314 315 314 314 315 316 316 318 318 319 318 316 314 313 321 323 324 327 327 324 327 336 337 338 338
310 311 313 313 312 311 311 312 312 312 310 309 308 308 310 315 316 316 316 315 316 315 314 315 316 316 317 319 318 318 318 314 312 316 323 323 327 327 322 328 332 336 337 336 334
311 312 313 313 313 312 311 312 312 311 310 308 308 308 310 318 317 317 316 315 315 314 315 316 316 317 318 320 319 317 314 313 313 318 316 324 322 323 318 328 332 335 334 334 334
312 313 313 314 314 312 311 312 311 310 309 308 308 310 311 316 316 316 316 316 315 316 317 317 316 316 318 317 314 315 315 315 317 318 317 317 318 319 320 326 332 332 333 333 333
313 313 314 314 314 311 311 311 310 309 308 308 310 312 315 315 316 316 317 316 314 315 316 315 315 316 316 314 315 316 317 317 317 317 316 316 317 320 322 326 331 332 333 333 331
313 314 315 314 313 311 311 310 309 308 308 310 312 314 318 315 317 317 315 314 314 314 314 314 315 317 315 317 317 317 316 316 316 318 318 318 318 320 324 326 327 329 330 328 326
313 314 315 314 312 311 310 309 308 309 310 313 316 318 316 318 318 316 315 315 316 314 314 316 316 318 318 318 318 317 316 316 316 320 319 320 322 321 324 326 325 326 326 326 326
314 315 315 314 311 310 309 309 313 314 313 318 317 318 316 317 317 315 316 316 317 316 319 317 317 318 319 318 318 318 318 317 319 321 323 323 323 322 323 325 327 326 325 325 325
314 315 315 312 311 309 309 312 318 319 320 314 315 314 314 315 317 316 315 317 318 317 319 318 319 318 319 317 319 318 318 320 319 320 323 324 325 323 322 324 326 326 326 326 325
314 315 314 312 310 309 310 316 323 323 324 319 316 316 317 317 317 316 317 318 318 317 320 319 320 319 320 320 320 321 321 322 320 321 323 324 325 325 323 322 322 324 325 326 327
314 315 314 311 310 310 313 316 318 325 320 318 318 318 316 317 318 317 318 318 319 319 321 321 318 320 321 321 321 321 320 321 321 322 322 322 323 326 326 325 324 324 325 326 328
315 315 313 311 313 312 319 322 326 321 319 318 317 316 317 317 318 319 318 318 319 319 320 321 320 321 321 321 321 322 322 322 322 323 323 323 323 327 326 327 326 325 325 326 327
315 315 313 311 313 316 323 326 324 325 318 318 318 319 319 318 318 318 319 318 318 320 321 320 318 320 321 320 320 320 322 322 322 323 324 322 323 323 327 327 327 324 323 322 322
315 315 313 312 315 320 326 324 322 321 317 317 318 319 320 319 320 320 321 321 321 322 322 321 320 319 320 322 321 322 323 323 322 324 324 321 322 322 323 324 326 324 321 320 318
315 315 313 312 319 324 322 319 318 317 318 317 318 319 320 320 320 320 321 321 320 321 322 320 322 319 319 321 321 323 323 322 321 324 321 321 321 321 320 321 324 323 320 319 317
314 314 314 313 314 324 319 326 319 319 318 318 318 319 321 320 320 321 321 321 320 321 320 320 320 318 318 319 320 320 322 321 323 320 324 322 323 322 319 320 323 322 320 318 318
315 314 313 314 316 317 323 322 318 319 319 318 318 319 320 320 319 321 322 320 321 320 320 321 321 319 318 318 318 320 319 322 323 324 322 321 322 322 322 321 322 321 320 318 318
314 317 318 316 321 320 325 320 319 321 321 319 318 319 320 321 320 319 320 320 320 319 319 320 321 320 319 320 321 319 320 318 320 321 319 317 317 321 321 322 321 321 320 319 318
317 321 318 320 322 319 321 318 320 322 319 320 320 320 321 322 321 322 321 322 320 320 322 319 322 324 321 318 318 319 319 318 318 317 319 322 317 316 318 319 320 320 319 319 318
317 321 322 323 323 324 318 319 321 321 320 322 321 322 322 323 324 323 323 317 317 320 322 320 323 323 321 319 318 320 319 316 317 319 319 327 316 316 317 317 317 319 319 318 317
318 325 322 316 317 319 318 319 318 319 320 321 322 323 324 324 323 325 323 318 317 318 313 316 321 322 324 320 319 320 319 317 317 319 317 319 316 316 317 318 317 316 317 316 315
320 322 320 324 319 318 318 318 318 322 320 320 323 324 324 326 324 325 323 318 318 316 318 320 322 319 317 316 316 317 318 318 317 318 318 316 316 315 316 317 318 316 315 315 313
320 321 318 319 316 317 315 317 317 321 322 322 323 323 324 326 324 325 323 321 322 320 321 317 322 318 319 316 316 317 317 318 318 318 317 317 317 317 316 315 316 315 314 313 312
318 317 318 313 317 318 316 317 317 322 321 320 323 324 324 323 321 320 318 318 319 321 321 320 318 317 319 314 315 319 317 317 317 317 318 318 318 317 317 316 315 315 313 312 312

GFSSW_850_thetae_009.txt.gz
Theta_e
308 308 309 310 311 311 312 312 312 312 312 312 312 311 309 307 307 308 313 313 312 310 313 315 314 316 316 316 315 317 320 321 323 327 331 331 331 327 326 325 327 333 335 337 340
308 308 309 310 311 312 312 312 312 312 312 312 311 310 307 307 309 312 316 313 311 310 313 315 316 315 316 316 316 317 319 321 325 329 331 328 328 328 327 328 330 335 337 340 339
308 309 310 310 311 312 312 311 311 312 312 312 311 309 307 308 316 322 316 312 311 312 315 314 315 315 317 317 317 317 321 324 326 327 326 326 325 326 328 331 330 336 337 336 337
308 309 310 311 312 313 312 311 311 312 312 311 310 308 308 309 323 320 314 311 311 313 316 315 315 316 319 318 317 320 320 321 320 323 322 324 323 327 324 324 326 332 335 334 337
308 309 311 312 313 313 312 311 312 312 312 311 309 308 308 320 320 317 315 313 313 315 316 316 317 317 318 318 318 320 320 319 317 318 322 324 325 324 326 327 330 334 335 333 335
308 309 312 313 313 313 313 311 312 312 311 310 308 308 311 320 318 320 316 314 316 316 315 316 317 317 318 319 320 319 320 316 319 321 324 326 324 321 327 329 331 332 331 330 330
308 310 312 313 314 314 312 311 311 311 310 309 308 308 313 318 318 321 317 316 317 316 316 316 317 317 319 321 319 317 317 316 321 321 324 321 321 323 327 328 329 329 328 328 327
308 311 313 314 314 314 312 311 311 310 309 308 308 310 318 319 318 319 320 319 318 318 317 318 319 318 319 318 318 318 319 322 322 321 318 318 320 322 326 328 329 328 329 329 328
308 311 313 314 315 314 311 311 310 309 308 308 311 316 321 318 317 318 319 318 318 318 318 316 317 318 319 319 318 318 318 320 320 319 317 318 320 322 324 327 328 329 330 330 329
309 312 314 315 314 313 311 309 308 308 308 311 314 320 318 318 319 317 317 316 318 318 316 317 318 320 320 319 318 319 319 319 318 318 318 320 322 323 323 325 328 329 330 329 329
309 313 314 315 314 312 310 308 313 316 311 319 320 319 319 319 318 317 317 317 318 319 319 319 320 320 320 319 320 319 318 318 319 319 318 321 321 322 324 324 325 327 328 329 329
309 313 314 315 314 312 309 316 321 323 324 313 318 318 318 318 318 317 317 318 319 320 319 320 320 320 320 320 319 319 319 320 320 320 323 322 323 323 324 325 326 326 326 327 328
309 313 314 315 313 311 309 312 323 323 326 321 318 318 318 319 318 318 318 318 319 319 320 321 320 320 319 319 319 319 319 321 321 323 323 323 325 326 325 325 326 327 327 327 328
309 314 314 315 312 313 312 311 314 317 326 320 319 319 318 319 318 318 318 319 320 319 321 321 321 321 320 319 321 320 322 322 321 323 322 322 323 325 326 326 325 326 327 328 329
309 314 315 314 320 316 324 323 321 326 325 320 319 318 319 318 319 319 318 318 320 320 321 322 322 321 320 322 322 325 323 323 323 324 323 323 322 325 327 327 326 325 326 327 329
310 314 314 314 312 318 320 326 327 328 322 319 319 319 320 318 318 319 317 318 319 320 320 321 321 322 323 322 322 323 323 323 322 323 324 322 323 327 328 327 327 327 327 329 330
310 314 314 314 317 317 319 327 327 324 319 318 318 319 320 319 319 320 319 319 318 319 320 321 321 322 321 322 323 322 323 322 323 325 323 322 324 323 323 325 327 327 327 328 328
310 314 315 314 317 320 325 328 324 320 320 318 318 319 320 319 320 320 319 319 319 321 321 321 323 322 322 322 322 322 321 323 321 322 321 323 322 321 323 322 324 327 326 326 324
311 313 314 314 312 321 326 328 323 318 320 318 318 319 320 319 319 322 321 320 320 320 321 321 321 321 321 322 321 321 323 322 323 324 324 321 320 322 323 323 324 327 325 324 322
312 314 315 314 313 319 325 324 321 320 320 319 318 319 320 320 319 321 321 322 322 322 323 321 321 321 320 321 321 322 322 322 321 321 322 321 321 320 324 323 324 327 324 323 321
316 317 316 313 313 319 327 324 320 320 320 319 319 319 320 320 319 320 321 323 323 322 321 321 321 322 321 321 321 322 320 320 322 324 324 320 320 321 319 322 323 325 324 323 321
317 320 322 316 321 323 326 322 319 322 322 320 321 319 320 321 321 320 320 321 322 322 320 320 322 326 323 322 321 322 322 322 322 321 322 324 320 319 321 321 322 323 323 322 321
319 319 323 321 326 330 323 320 319 322 322 321 320 320 320 321 320 320 320 322 322 323 321 323 322 324 323 322 321 320 321 320 319 321 319 326 319 319 319 320 320 321 322 322 321
318 324 322 321 322 323 322 321 320 321 322 321 320 321 323 323 323 323 323 322 321 322 317 319 321 322 324 322 322 322 319 320 319 321 320 320 318 318 318 319 319 319 320 321 321
318 321 321 327 326 324 322 320 319 321 322 322 323 322 322 322 324 324 325 322 321 319 318 323 323 322 322 321 319 319 320 320 319 319 321 319 316 316 317 318 317 318 318 319 321
319 320 320 323 321 322 319 320 320 321 323 324 323 321 322 323 323 323 325 325 324 323 324 322 324 322 323 321 320 320 319 318 319 319 318 317 317 318 318 317 317 317 318 318 319
320 320 321 324 325 322 322 319 320 322 324 323 322 324 323 325 325 324 324 324 324 325 325 324 325 322 320 319 320 322 320 319 318 318 318 319 319 319 319 317 317 317 317 317 317

GFSSW_850_thetae_015.txt.gz
Theta_e
309 310 309 309 309 309 310 310 311 312 311 311 311 312 311 309 307 308 312 314 312 311 309 313 311 310 316 316 317 316 311 311 323 329 327 327 327 328 329 330 328 327 330 335 334
309 309 309 308 308 309 310 311 312 312 311 311 312 312 310 307 309 319 320 318 313 310 309 314 317 311 314 316 316 314 311 315 326 328 329 328 326 327 328 330 330 326 333 334 330
309 308 309 308 308 309 310 311 312 312 311 311 312 311 308 307 319 323 318 315 311 311 310 315 316 315 314 316 316 316 313 320 325 324 327 326 327 327 327 328 328 325 326 333 332
310 308 308 308 308 309 311 312 312 312 311 311 311 310 307 308 321 322 316 314 311 310 313 315 316 316 315 313 316 315 316 316 323 324 325 325 327 328 326 326 328 330 329 332 332
311 308 308 308 308 310 311 312 313 312 311 311 311 308 307 315 318 321 316 315 311 313 315 316 318 317 314 315 316 316 316 318 321 323 325 326 325 323 324 327 328 332 334 333 333
313 309 307 308 309 310 312 313 313 311 311 311 309 308 308 320 322 321 318 315 314 314 315 317 317 317 317 317 317 318 317 317 318 321 324 323 323 325 325 327 328 331 333 334 333
315 311 307 308 309 311 313 313 312 311 310 310 308 307 308 313 320 321 321 316 315 314 317 317 317 319 319 318 319 319 317 317 320 323 323 323 323 325 328 330 330 330 333 334 330
318 312 308 308 309 311 313 313 311 310 309 308 307 308 310 318 319 319 319 321 319 317 318 318 318 319 318 319 319 319 317 316 320 321 323 322 322 327 330 331 329 332 332 332 328
321 314 310 308 309 312 314 313 310 309 308 308 312 320 316 320 319 318 319 321 321 320 319 319 318 318 319 318 318 317 317 322 320 320 320 319 320 327 329 329 327 327 328 328 327
323 316 311 308 309 313 314 312 309 309 308 308 311 315 315 320 317 319 319 319 319 319 319 319 317 317 316 317 319 317 320 321 320 318 319 314 318 324 327 327 326 326 326 326 326
323 318 312 308 309 313 314 311 321 322 316 311 315 314 319 319 319 319 318 318 319 319 317 318 316 317 318 319 319 319 318 319 317 317 316 316 317 320 323 324 324 326 327 326 326
320 320 313 308 309 313 314 312 319 317 320 321 324 316 319 320 319 319 318 318 319 319 319 318 318 318 320 320 319 319 319 318 317 315 314 317 317 317 322 323 323 325 322 327 325
319 321 313 308 310 314 314 311 314 320 321 323 322 317 317 319 320 318 318 318 318 319 319 320 320 321 321 320 320 320 321 319 318 317 317 319 321 321 322 323 324 325 323 328 327
319 321 314 308 311 319 316 317 311 311 321 323 322 315 315 318 319 318 318 318 318 319 321 320 319 320 320 320 319 320 321 322 321 320 318 317 321 324 322 320 321 325 327 328 328
318 321 315 308 315 318 323 324 323 324 326 320 319 318 318 319 319 318 318 318 319 321 319 321 321 321 321 320 320 320 320 321 322 320 323 321 322 322 321 321 322 323 324 328 328
317 320 315 309 312 317 323 326 325 326 326 323 320 319 319 319 318 318 318 318 319 318 320 319 320 320 321 321 320 322 320 320 320 319 322 323 321 324 322 322 322 324 325 326 329
317 319 317 310 312 319 316 323 324 322 320 321 319 320 319 319 318 318 318 317 316 318 320 320 319 321 321 320 321 322 322 321 321 322 322 323 325 322 322 321 321 324 324 326 329
317 319 317 311 316 319 320 325 326 322 321 320 319 319 319 318 318 318 318 316 315 317 317 321 322 319 320 318 320 321 318 322 322 324 326 323 324 322 321 322 323 323 324 323 328
316 317 315 312 315 320 322 327 321 323 318 320 318 318 318 318 317 317 316 315 315 315 317 322 323 321 321 320 320 320 320 319 324 324 326 324 321 321 321 322 323 323 322 324 328
313 314 315 313 312 318 320 322 324 321 321 319 320 317 318 318 319 317 317 317 316 316 320 323 324 322 321 321 319 320 319 320 320 323 321 317 319 321 321 321 322 322 321 329 330
312 313 315 315 312 317 319 321 323 322 321 321 320 317 318 319 319 318 319 318 317 320 321 321 322 323 322 321 318 319 318 318 318 318 319 321 319 317 318 319 320 323 326 329 329
313 314 314 311 315 316 316 320 321 322 322 322 320 319 318 320 319 317 319 323 322 320 321 320 322 320 323 320 319 318 320 319 315 317 317 315 318 317 316 318 320 321 326 328 327
314 314 314 312 313 315 315 319 321 322 322 321 321 320 320 320 321 318 323 322 322 321 320 321 318 316 318 321 321 320 318 318 321 316 318 313 316 316 317 317 318 319 321 326 326
314 316 317 316 315 314 315 317 321 322 322 322 321 321 320 320 319 320 323 323 322 320 319 322 321 317 317 319 321 321 320 318 318 314 315 315 318 315 315 315 317 318 319 321 325
314 314 318 320 318 317 316 318 321 323 322 321 320 320 320 319 320 320 324 322 323 320 321 319 319 320 320 322 321 321 321 320 317 318 316 316 318 317 316 315 316 318 318 318 318
314 315 319 318 318 318 317 320 321 321 322 321 322 319 318 320 321 321 324 324 322 321 320 320 321 322 322 321 320 320 319 319 319 319 317 316 316 315 316 316 316 316 316 318 317
310 315 318 319 318 318 317 321 321 321 321 320 321 321 320 323 323 324 325 324 323 321 320 320 316 315 320 315 315 313 316 318 318 318 318 315 314 315 314 314 314 315 316 316 317

GFSSW_850_thetae_021.txt.gz
Theta_e
311 309 308 308 309 309 309 309 309 310 311 311 311 311 311 310 309 315 318 317 316 312 308 308 310 309 313 316 316 315 308 308 310 327 325 326 327 328 329 329 331 331 333 332 333
317 313 310 308 308 308 308 308 309 310 311 311 310 311 311 310 312 320 316 315 315 310 308 312 310 313 315 314 314 311 309 311 311 323 325 326 326 328 329 331 330 330 331 330 333
321 320 315 309 308 308 308 308 310 311 312 311 310 310 310 308 313 321 315 313 313 309 310 315 313 312 313 313 314 312 312 311 319 325 326 324 326 327 328 328 329 331 330 330 330
322 322 321 313 308 307 308 308 310 311 312 311 310 310 310 307 318 319 315 311 311 310 312 315 316 315 312 313 314 313 313 314 316 321 325 325 326 327 327 327 330 331 330 329 330
322 322 322 319 310 307 308 309 310 312 312 310 310 310 309 308 314 320 317 312 311 311 313 315 316 317 315 313 313 312 313 314 315 323 324 325 324 322 324 329 329 327 327 328 328
318 318 322 322 313 308 307 308 310 312 312 310 309 309 308 309 321 321 318 313 312 314 314 315 316 317 316 315 314 317 316 316 316 323 325 323 322 324 327 331 328 328 328 324 325
313 315 315 322 318 309 308 308 310 313 311 309 309 309 307 308 320 321 320 315 313 313 315 315 316 317 318 316 318 318 316 318 319 322 323 323 323 322 327 331 331 332 328 326 322
314 313 313 321 321 311 308 308 311 313 311 309 308 308 308 309 317 319 318 319 317 316 316 316 317 317 317 318 318 316 313 319 319 320 321 323 325 323 328 329 330 332 331 328 328
313 311 312 316 322 315 308 308 311 313 310 309 308 309 310 311 314 317 318 318 319 320 318 317 318 317 317 315 313 312 314 318 320 319 321 321 327 324 330 330 331 332 332 331 330
314 306 313 316 319 319 308 308 312 311 314 315 308 309 309 316 317 318 317 318 318 319 319 318 316 313 313 313 315 316 316 319 318 318 320 321 326 322 326 326 329 331 332 332 330
312 309 314 316 316 320 308 310 313 320 318 314 310 308 309 315 317 317 318 317 318 318 316 316 313 314 315 314 316 317 317 317 317 316 318 320 323 325 324 325 325 329 332 331 330
304 311 312 315 315 320 308 312 314 315 314 317 317 318 318 319 318 318 318 318 317 317 316 314 315 314 315 316 317 318 317 317 316 315 315 314 322 321 322 324 326 328 330 331 331
301 307 314 313 318 319 308 316 320 315 312 314 316 316 316 317 317 318 318 317 316 316 316 315 316 316 318 317 318 317 318 318 319 315 314 316 319 323 322 322 324 326 329 329 329
298 307 316 318 315 317 314 322 318 312 315 317 321 318 317 316 316 318 318 317 315 315 315 315 316 318 319 319 318 318 317 317 318 315 317 315 320 318 321 322 321 323 325 327 326
298 303 315 318 315 312 321 319 311 318 312 312 321 318 316 316 317 318 319 317 315 315 316 317 319 318 318 318 317 318 317 317 319 318 317 318 317 315 318 324 322 321 324 325 326
298 302 316 317 317 313 321 320 321 315 314 317 320 314 314 316 317 317 318 318 317 314 316 315 318 317 317 318 317 318 318 316 315 316 318 318 317 316 318 322 323 321 322 324 325
303 303 314 315 315 316 316 319 322 318 314 320 317 315 314 315 316 316 315 314 314 315 317 318 317 318 319 319 318 318 316 318 318 317 318 320 319 317 317 316 317 316 320 323 323
305 307 313 313 315 315 312 321 322 318 318 320 317 316 316 316 316 316 314 314 313 314 314 316 317 318 319 318 318 318 316 316 319 318 318 320 321 319 318 318 319 319 320 320 322
304 307 311 312 316 314 318 322 319 319 320 315 317 317 317 317 316 315 313 313 312 312 315 316 318 319 319 319 318 317 317 315 318 316 319 317 319 314 315 318 317 318 320 322 322
305 306 310 311 315 316 318 318 319 318 320 320 317 316 316 316 315 314 313 314 314 312 314 316 319 320 319 319 318 317 315 316 316 321 322 318 316 316 319 320 319 318 320 322 325
304 306 308 310 314 313 315 315 315 317 319 321 321 317 316 316 315 314 314 314 314 313 314 317 315 316 320 318 318 317 316 314 315 314 317 316 316 312 316 319 318 317 320 321 324
304 308 309 308 314 313 314 315 314 315 316 320 321 321 318 315 315 315 315 315 316 316 316 316 315 314 317 317 317 317 317 314 313 315 312 312 315 314 312 313 315 319 321 321 321
304 308 309 309 315 314 312 314 315 314 316 317 320 319 317 315 315 315 315 316 318 315 316 317 316 315 317 317 317 319 316 316 314 310 315 313 314 312 311 311 315 318 321 321 322
304 309 310 311 312 312 313 314 315 315 315 316 319 320 320 317 317 317 319 321 320 318 317 316 314 315 317 317 317 319 318 316 315 313 313 312 314 314 314 312 313 315 317 320 323
305 308 310 311 312 311 312 312 315 316 315 314 315 319 320 318 318 318 321 320 320 317 317 317 317 314 314 315 318 318 318 315 315 314 314 315 314 315 313 311 311 314 316 319 321
304 310 310 310 311 311 312 312 314 315 315 315 314 318 316 319 316 317 320 319 319 319 317 315 315 316 318 316 316 318 316 315 316 316 314 314 313 310 311 312 312 313 315 316 317
303 308 311 310 310 311 311 312 312 314 314 314 316 318 318 317 318 316 319 319 318 317 315 315 312 312 315 313 314 313 313 315 315 315 315 315 313 311 312 311 312 313 315 315 316

GFSSW_850_thetae_024.txt.gz
Theta_e
315 314 312 310 308 308 308 308 308 309 310 311 311 310 310 311 310 317 318 316 315 311 309 309 311 311 313 314 314 313 308 308 310 321 322 326 326 327 329 330 331 332 332 334 334
320 320 319 315 310 308 308 308 308 309 310 311 311 310 310 311 312 320 317 314 314 309 308 310 309 311 314 314 315 311 308 310 309 314 323 325 325 328 330 331 331 332 333 333 332
322 322 322 321 317 309 307 308 308 309 311 311 311 310 310 309 313 320 317 313 314 309 311 312 311 312 312 313 313 310 310 310 312 316 324 324 325 327 328 329 329 332 332 332 331
322 323 322 322 321 313 308 307 308 309 311 311 310 310 310 309 318 315 316 311 312 309 314 315 314 314 312 312 313 312 312 312 314 317 325 324 326 325 325 327 330 331 331 330 330
316 318 320 320 322 320 310 307 308 309 311 312 310 309 310 307 313 320 317 311 310 310 315 314 315 316 314 312 312 311 312 314 313 321 324 325 322 322 328 330 329 330 330 329 328
318 317 313 318 319 321 314 308 308 309 311 312 310 309 309 307 319 320 316 312 312 314 314 314 316 316 315 314 312 314 314 315 317 323 324 322 322 325 329 330 332 329 330 328 325
314 317 317 316 315 320 318 309 308 309 311 312 310 308 308 310 316 321 319 314 312 313 314 314 315 316 316 315 316 316 315 317 320 322 323 324 322 325 329 328 326 327 327 325 320
305 314 316 315 316 318 321 311 308 308 311 312 310 308 308 308 312 321 319 318 317 314 313 315 316 316 316 316 316 314 314 320 319 320 322 321 325 324 329 329 329 327 327 326 325
299 308 314 315 317 315 320 313 308 309 311 312 310 308 309 309 310 317 317 317 318 319 317 316 317 316 316 314 311 311 314 318 321 319 321 320 326 322 330 330 329 330 327 324 324
298 303 311 316 318 317 317 315 308 310 312 313 314 310 309 313 315 316 317 318 318 318 318 317 316 312 311 311 315 316 316 317 320 318 320 322 325 321 327 329 329 331 330 327 326
298 301 309 309 318 317 315 311 311 315 317 318 309 309 309 312 316 317 317 317 317 317 316 315 312 313 312 313 315 316 315 316 317 315 319 320 324 322 325 326 327 329 331 331 329
299 299 308 309 318 317 318 309 313 314 314 313 315 316 318 318 317 317 317 317 317 315 315 314 314 312 313 314 316 316 317 316 316 314 315 317 323 323 321 325 325 328 330 331 330
299 298 305 312 316 317 316 311 316 320 314 313 314 315 315 315 316 316 317 318 315 315 315 315 315 315 316 316 317 317 318 317 317 314 314 317 320 325 322 323 324 326 329 330 330
301 298 305 314 316 314 314 317 319 320 312 314 317 316 316 316 316 316 317 317 314 314 314 314 314 316 316 316 316 318 316 316 316 314 316 314 315 317 321 321 320 324 326 329 330
303 300 302 314 315 313 317 318 312 315 310 313 320 318 317 316 316 317 318 316 313 314 314 314 318 317 317 317 317 317 316 316 317 316 316 317 315 314 317 323 323 321 324 327 328
304 302 300 312 314 312 319 315 318 316 311 312 318 316 314 315 316 315 317 317 316 313 315 314 316 316 316 316 317 316 317 315 314 315 316 317 316 315 317 322 325 323 323 324 326
305 305 302 311 312 312 316 315 323 317 312 315 319 313 313 313 314 315 313 314 313 314 315 316 316 317 318 318 316 315 316 317 317 317 317 318 318 317 315 315 318 320 323 324 325
303 305 303 311 313 314 316 317 320 316 315 317 316 313 313 313 314 315 313 312 312 313 312 316 316 317 318 317 316 316 315 316 319 317 317 318 318 317 315 316 317 318 319 320 323
302 304 303 309 312 313 316 317 319 318 318 317 315 315 315 314 314 315 313 312 311 311 314 314 315 317 318 318 316 316 316 313 316 315 318 315 316 313 313 317 317 317 318 318 318
301 303 303 308 313 314 315 316 316 317 319 320 317 316 315 315 315 314 312 312 313 311 312 314 316 318 318 318 318 315 314 316 313 320 320 316 315 313 314 318 318 317 318 320 320
302 303 303 308 311 313 314 315 314 316 317 320 321 320 315 315 314 313 313 314 312 311 312 314 314 314 319 317 317 316 315 313 314 313 316 315 314 311 314 315 315 314 318 320 321
304 303 305 307 312 312 312 313 313 315 315 318 318 321 321 314 314 314 314 314 314 313 314 315 313 312 316 316 316 315 315 313 314 315 311 310 313 312 310 310 312 315 317 320 320
303 305 306 309 310 312 311 312 313 314 314 317 318 319 317 316 315 314 313 314 314 313 314 315 313 312 313 314 316 317 315 314 311 309 314 312 314 310 310 311 314 314 317 317 319
303 304 308 308 308 309 311 312 313 314 314 315 316 318 319 318 314 314 314 319 316 314 315 315 313 312 314 313 314 317 315 314 314 312 313 312 314 313 312 311 311 314 314 316 319
302 304 308 308 308 309 310 311 312 314 314 314 314 317 318 320 317 318 319 319 317 317 315 314 314 313 312 314 316 316 317 314 314 314 315 315 312 313 312 311 311 312 313 318 320
302 305 308 307 307 309 311 311 312 313 315 315 314 315 316 318 316 317 319 318 318 315 315 313 315 313 317 316 316 317 315 314 313 314 313 312 312 309 311 311 311 312 315 316 317
301 304 308 307 308 308 310 311 312 312 313 314 313 313 315 315 315 315 316 316 316 316 314 312 311 312 316 312 314 313 313 314 314 313 314 314 312 309 311 311 310 313 314 314 314

GFSSW_850_thetae_027.txt.gz
Theta_e
319 319 319 320 318 314 309 308 308 308 309 310 311 311 310 310 310 316 316 314 314 310 309 312 311 311 313 313 314 313 315 314 314 316 322 326 327 328 329 331 331 332 332 333 333
322 322 321 321 321 320 313 308 308 308 309 310 311 311 310 310 311 319 317 314 313 309 308 308 310 311 314 315 315 314 314 314 312 314 321 325 326 328 331 330 332 332 332 332 331
321 322 322 322 322 321 320 311 307 308 308 310 311 310 310 310 312 320 318 313 313 308 311 309 310 313 312 312 313 311 316 313 313 312 321 325 325 327 331 331 330 333 332 330 330
316 316 320 319 321 321 321 317 308 307 308 310 311 310 310 310 318 314 317 311 312 311 311 311 312 313 312 313 312 314 312 313 313 316 323 324 326 325 326 328 329 333 333 329 329
316 318 318 316 315 318 319 320 312 308 308 309 311 310 309 310 309 319 317 311 310 313 315 315 315 315 316 313 312 313 314 313 313 316 324 324 323 326 329 330 331 331 330 328 329
311 315 317 318 316 315 315 320 316 308 308 309 311 311 309 309 312 319 315 311 310 312 315 315 316 316 315 315 313 314 313 315 317 323 323 325 326 326 328 330 330 330 330 328 328
300 307 312 317 317 314 315 318 319 310 308 308 311 311 308 310 310 320 317 312 312 313 313 314 314 315 316 316 315 316 316 318 321 323 324 322 326 329 328 327 328 328 328 328 327
298 299 304 312 315 315 315 316 320 313 308 308 311 312 309 309 310 320 319 316 313 312 313 314 316 316 315 316 315 315 315 321 320 321 322 322 327 328 327 328 328 327 327 327 324
299 298 299 306 314 311 316 315 318 316 308 309 311 310 309 309 309 313 319 317 317 317 315 315 316 315 315 316 316 315 318 321 321 321 323 322 327 327 328 328 327 328 326 326 324
299 299 298 306 312 309 315 314 317 311 310 312 313 311 312 310 312 313 317 315 317 318 316 316 315 316 315 316 319 318 318 318 322 321 322 323 327 327 329 329 329 328 327 325 323
299 299 298 303 313 309 315 315 310 311 314 316 312 311 309 310 315 316 317 317 318 317 318 314 317 318 317 315 316 317 316 317 318 317 322 323 326 327 328 329 329 329 329 327 322
300 299 299 301 312 311 315 316 311 313 314 314 312 314 316 313 316 316 317 317 316 317 314 316 318 315 313 314 316 317 317 318 317 314 319 319 323 325 326 328 328 329 329 330 327
304 300 299 301 310 311 313 313 313 316 316 315 312 312 312 314 316 316 316 317 316 316 316 318 317 314 315 316 317 318 318 318 318 315 316 320 321 326 324 325 326 326 328 329 330
305 306 300 302 308 310 311 312 317 315 313 312 314 315 315 315 317 315 316 317 315 317 315 316 314 315 316 317 316 319 317 317 317 316 319 315 319 319 326 325 323 325 325 328 329
305 306 304 304 313 312 315 316 315 316 313 313 319 317 316 316 314 315 316 315 315 315 316 317 317 317 317 318 317 319 317 318 318 317 318 318 319 318 319 327 326 325 324 326 328
305 304 304 304 311 312 317 315 316 318 315 312 317 318 318 315 315 314 316 315 314 315 315 315 315 317 318 316 316 316 317 317 316 318 321 318 319 320 320 325 326 326 325 326 327
303 304 304 302 309 310 315 316 319 321 313 313 318 315 315 314 314 314 315 315 316 317 317 316 316 316 317 318 317 317 320 321 321 322 322 318 320 322 320 317 320 323 324 325 327
303 303 305 303 309 308 313 315 322 316 316 315 315 314 316 313 314 314 315 317 312 314 315 318 318 317 317 318 319 318 320 323 320 322 319 318 322 320 318 317 316 316 317 318 322
303 302 303 303 307 312 314 317 315 316 316 317 314 314 314 313 313 315 315 317 315 313 318 317 316 315 317 318 318 317 320 316 319 317 322 319 318 317 315 317 319 319 318 318 317
303 302 302 303 307 311 314 314 316 316 318 320 318 315 316 315 315 315 315 314 314 312 314 317 317 318 318 318 316 317 316 321 319 322 321 319 318 319 318 317 317 319 320 320 321
303 303 302 302 305 310 311 313 313 315 317 320 321 321 316 316 315 315 315 313 313 311 313 315 317 316 319 320 320 318 318 315 318 318 322 320 319 316 317 317 319 316 315 319 320
301 302 302 302 306 309 310 311 312 313 315 316 318 321 321 315 314 315 316 316 313 313 316 316 317 318 319 316 316 317 318 317 323 319 316 317 318 314 316 315 314 314 314 317 320
301 302 303 302 306 309 310 311 311 313 314 316 317 319 318 317 315 315 314 313 312 314 317 316 316 318 317 316 316 319 316 315 314 315 318 324 321 313 313 314 314 313 314 314 316
302 303 305 304 306 308 309 311 312 312 313 314 316 317 318 318 315 314 315 315 313 313 314 315 315 318 318 318 316 318 317 315 318 320 320 319 319 318 317 315 315 314 314 313 316
301 304 306 306 306 308 308 309 311 312 313 313 315 315 319 318 316 316 316 318 316 315 314 317 317 314 314 313 315 317 317 316 317 318 321 320 316 317 317 316 313 312 312 316 319
301 304 305 306 305 306 308 310 311 312 312 314 314 315 315 319 318 317 318 318 318 316 316 314 317 314 315 314 315 317 317 316 316 314 315 315 315 314 312 311 311 311 315 315 316
301 303 305 306 307 307 306 309 311 311 312 312 313 313 315 315 316 315 315 315 317 318 316 316 315 316 318 313 315 318 316 316 316 315 317 318 318 312 313 312 311 312 312 311 312

GFSSW_850_thetae_030.txt.gz
Theta_e
320 321 321 321 321 321 321 319 310 308 308 308 309 311 311 310 310 314 316 315 313 311 309 311 311 313 313 315 315 314 318 320 319 318 320 323 329 331 331 332 334 335 336 334 332
322 321 321 321 322 322 321 321 319 309 308 308 309 311 311 310 310 317 317 314 312 309 309 313 313 313 315 316 317 317 318 318 317 318 319 321 327 331 332 333 334 334 332 332 331
314 315 319 320 320 321 321 320 321 315 308 308 309 310 311 310 310 320 318 313 312 308 310 311 312 313 316 316 317 318 319 319 318 317 317 322 325 329 331 331 332 333 329 329 329
313 313 314 315 317 315 317 318 319 320 311 308 308 310 311 309 317 317 317 311 310 310 311 312 314 315 317 317 316 318 318 317 318 318 321 327 327 329 330 332 334 332 329 330 329
304 307 311 314 315 315 314 315 315 320 315 308 308 310 311 313 312 313 317 311 310 312 314 315 317 318 319 319 318 318 319 318 318 318 325 327 328 330 332 333 333 330 329 328 328
299 299 303 310 314 313 314 312 312 318 318 310 308 309 312 313 310 317 315 311 310 314 315 315 318 318 319 319 319 319 319 319 319 323 326 327 328 328 331 332 332 331 330 329 327
299 298 299 302 309 311 312 311 311 317 320 313 308 308 311 312 310 317 314 311 310 313 315 314 316 318 319 320 319 319 321 322 321 326 326 326 328 331 331 331 330 330 329 328 328
299 299 298 298 300 307 310 308 310 315 319 317 308 309 313 311 309 315 316 312 312 312 313 314 315 318 319 319 319 320 319 322 323 325 326 326 328 332 330 330 329 329 329 329 329
299 299 299 299 299 303 309 304 310 311 315 315 309 310 314 310 309 312 319 316 314 312 312 315 316 319 319 319 320 320 321 322 322 324 327 327 328 330 330 330 328 328 327 326 326
301 301 299 299 298 303 307 306 310 310 313 311 312 313 312 312 311 309 317 317 317 316 316 316 319 320 319 319 320 320 320 321 323 325 325 327 328 330 331 330 328 327 327 326 325
305 301 300 299 298 305 307 312 316 314 313 317 316 315 310 312 314 315 312 316 317 318 321 319 321 320 318 319 320 321 320 320 321 322 324 325 325 329 331 331 331 330 328 327 326
306 304 303 300 299 306 308 314 316 313 315 315 311 314 314 312 317 317 316 317 319 321 320 320 320 319 319 318 319 321 321 321 321 320 321 323 323 327 331 332 331 331 331 329 327
305 306 305 303 301 306 306 314 313 313 319 317 317 315 315 314 315 317 317 319 320 320 320 321 320 319 319 320 321 321 321 321 321 320 320 322 322 326 328 330 330 331 330 330 327
305 305 306 306 302 308 309 310 311 316 318 314 314 315 315 315 316 316 317 318 319 320 320 321 319 319 320 320 320 321 321 320 321 321 321 320 321 322 325 329 330 329 330 330 329
305 305 305 305 311 312 313 313 315 315 312 314 317 317 317 316 316 316 316 317 319 319 320 320 319 319 320 320 320 320 320 321 322 321 321 321 320 322 324 327 328 328 329 329 328
305 304 305 306 307 312 314 316 316 321 315 314 319 319 318 317 316 316 316 316 318 319 319 319 318 320 320 320 320 320 321 322 322 322 322 322 321 321 322 322 323 325 326 328 328
303 304 303 304 306 312 315 316 320 319 313 314 319 319 318 317 317 317 318 318 318 319 320 319 319 319 319 320 320 321 321 322 323 323 323 322 323 321 321 321 322 323 323 326 327
300 301 303 303 304 309 312 318 315 312 314 317 318 319 318 316 317 318 318 318 318 318 319 320 320 319 320 321 321 321 321 322 323 323 321 321 322 321 321 321 321 321 321 321 325
298 301 304 303 303 307 312 316 310 312 315 316 316 319 320 316 316 318 318 318 318 319 319 320 319 319 320 321 320 321 322 321 323 323 322 321 321 321 320 320 323 323 322 323 322
298 301 304 303 304 305 310 313 310 313 315 316 316 317 319 318 315 318 319 318 318 318 319 319 319 319 321 321 320 322 321 322 323 323 322 321 320 319 319 319 320 320 321 322 323
299 301 303 303 304 304 309 312 311 312 315 319 317 317 318 319 317 317 318 316 319 318 319 319 319 321 322 322 321 321 322 321 322 322 321 321 320 320 319 320 320 320 319 321 322
300 303 303 303 304 306 309 311 310 311 315 318 319 319 320 318 318 317 317 317 317 319 319 319 319 320 319 320 321 321 321 322 323 322 322 324 321 319 320 321 320 320 318 319 321
301 302 303 303 306 307 308 310 310 311 313 318 319 320 322 321 320 318 317 317 316 318 319 319 319 320 319 319 320 321 321 322 322 321 321 326 321 320 320 320 320 319 319 317 317
301 303 304 303 304 307 308 307 310 310 312 315 318 319 321 322 320 319 317 316 315 318 317 318 319 319 320 318 319 321 320 321 321 323 321 321 319 320 320 321 320 320 319 317 319
301 304 304 305 307 307 310 310 310 310 311 313 316 318 320 321 320 319 317 320 316 315 317 320 319 319 318 318 318 318 318 319 320 320 320 320 320 320 320 321 321 317 317 319 321
301 305 305 306 305 305 308 309 310 309 309 313 315 317 318 320 318 320 319 318 321 319 319 319 319 320 320 318 318 318 318 318 318 318 318 320 320 320 320 319 317 316 318 319 319
301 303 305 306 307 307 309 309 309 310 310 310 311 313 315 316 315 317 316 316 318 321 320 320 320 320 319 319 319 320 319 319 319 319 319 321 321 320 320 319 318 318 318 317 315

GFSSW_850_thetae_033.txt.gz
Theta_e
320 322 320 320 321 321 321 321 321 321 313 309 308 309 310 311 310 313 318 319 315 312 309 315 315 315 316 316 316 317 320 322 321 320 321 322 326 331 332 331 333 337 336 334 333
319 321 321 321 321 320 321 322 321 320 320 312 309 309 310 311 311 314 319 315 312 310 314 314 315 316 316 318 318 318 320 321 320 321 321 323 326 329 330 333 335 331 330 332 333
314 315 316 314 315 316 315 318 318 317 318 319 311 309 310 311 316 321 320 314 311 309 315 313 315 315 317 318 319 320 321 321 321 319 321 322 326 327 330 329 323 333 329 329 331
302 306 312 312 313 314 314 313 312 315 314 317 315 309 309 311 318 322 317 312 310 310 314 314 314 317 319 319 318 320 320 320 320 320 324 327 324 322 331 330 328 331 329 330 330
299 299 301 303 307 312 312 312 311 311 312 314 317 309 310 317 316 315 317 311 310 311 315 315 317 319 320 320 320 320 321 320 321 320 326 327 329 330 333 333 333 329 330 331 330
299 299 299 299 300 304 309 309 309 310 311 314 318 311 313 317 315 313 318 311 314 315 317 317 319 319 320 320 321 321 320 321 320 323 325 327 329 329 333 333 332 332 331 328 327
299 299 299 299 299 299 302 304 307 311 310 312 318 315 313 315 314 318 318 315 316 317 318 317 317 319 321 321 320 320 321 322 322 324 325 325 326 331 333 333 331 331 329 325 323
301 299 299 299 299 299 299 301 305 308 308 310 315 312 315 315 313 317 319 316 316 316 316 317 317 318 320 320 320 321 322 323 326 325 326 325 328 333 332 330 329 329 327 328 328
306 303 299 299 299 299 299 302 305 305 309 309 313 315 317 316 312 314 319 317 316 316 316 316 317 319 320 321 321 321 321 325 326 323 327 328 324 332 331 329 328 327 328 328 328
306 306 303 301 299 299 299 303 305 307 312 310 314 316 316 315 314 312 320 318 317 317 316 317 318 321 321 321 320 321 321 323 324 324 325 327 327 331 330 330 329 327 325 325 325
306 306 306 303 300 299 299 314 317 319 317 314 318 314 314 314 315 314 318 319 319 319 321 321 322 322 321 320 320 322 322 322 323 325 324 325 326 328 330 330 329 328 328 325 324
308 306 306 306 305 300 303 314 315 316 313 313 315 316 317 315 317 315 316 319 320 322 322 323 322 321 321 320 320 321 321 321 322 322 322 323 325 326 330 330 329 328 328 327 325
307 306 306 306 306 301 307 313 316 316 316 314 315 315 314 315 315 316 317 318 321 322 322 322 322 321 319 319 320 320 321 322 322 323 321 322 323 324 326 328 330 329 328 327 326
304 307 305 305 304 306 311 312 314 315 317 314 317 317 316 315 317 316 317 318 320 321 321 322 322 320 319 320 320 321 321 322 321 321 322 322 324 323 324 327 329 329 328 327 326
301 304 305 305 309 313 314 315 316 317 312 315 317 316 316 316 315 316 317 318 320 321 321 322 322 321 321 320 321 321 322 322 322 323 323 322 320 322 321 324 326 328 329 328 327
301 300 305 305 306 310 315 317 319 318 313 315 319 318 319 316 315 317 317 317 318 320 320 321 320 320 320 321 321 321 322 322 322 323 325 322 322 323 322 322 323 325 326 327 327
301 299 302 305 307 308 313 314 317 314 312 314 318 320 320 319 317 318 318 319 320 321 321 321 321 320 320 321 321 321 322 323 324 326 325 323 322 322 322 322 322 322 324 326 327
302 300 300 305 306 308 311 315 312 311 312 317 316 320 320 319 318 318 319 319 319 319 321 321 321 320 321 321 322 322 322 323 327 329 327 323 322 321 322 322 321 321 321 322 325
302 301 303 302 305 306 307 314 313 311 311 313 317 320 320 319 318 319 319 318 318 319 320 321 321 321 321 321 321 322 324 322 322 324 325 324 322 322 322 321 321 322 322 323 323
302 303 303 303 305 306 308 311 313 311 311 313 314 318 320 319 317 318 319 318 318 318 320 320 321 320 320 321 321 322 323 324 324 328 326 322 322 322 320 320 320 320 322 322 323
302 303 303 304 305 307 307 310 311 311 310 311 315 318 319 321 318 318 319 319 319 318 319 320 321 321 322 321 321 322 323 323 323 324 326 324 323 322 321 321 321 321 319 320 322
303 304 303 303 306 305 307 310 309 312 310 313 316 318 317 318 321 318 319 320 318 319 319 320 321 323 322 321 320 322 322 323 326 325 326 327 325 321 321 321 321 320 320 320 322
302 303 303 304 307 307 308 307 308 309 313 312 314 318 320 319 319 321 319 318 318 319 320 321 321 323 322 321 321 321 323 324 323 324 325 330 323 321 321 321 320 320 320 320 320
302 304 304 305 306 308 308 308 308 306 310 312 312 315 317 320 320 320 320 320 318 318 318 320 320 320 324 321 320 321 321 322 323 328 325 325 322 322 321 321 321 320 320 321 320
300 304 305 306 307 309 309 308 308 308 307 310 312 315 317 316 318 319 320 320 319 317 319 321 322 321 320 320 319 319 320 320 322 322 324 323 322 321 321 321 320 321 321 320 321
300 304 305 307 306 308 308 308 308 308 309 311 313 314 317 319 319 321 320 320 319 319 319 321 322 320 319 319 318 318 319 319 320 321 321 321 321 321 320 320 320 320 320 321 322
300 303 305 307 307 309 310 308 307 309 309 310 311 314 315 314 318 318 317 317 319 320 320 320 323 322 322 319 319 322 319 319 319 319 320 321 320 320 320 321 321 320 320 321 322

GFSSW_850_thetae_036.txt.gz
Theta_e
316 318 319 322 322 320 320 320 321 321 320 319 319 314 311 311 312 311 317 321 320 314 311 317 316 316 317 317 317 318 319 320 322 321 321 321 324 323 325 326 324 330 332 333 334
306 312 315 317 318 316 316 317 316 318 318 317 315 318 312 311 313 313 317 318 314 311 311 316 316 316 318 318 318 319 319 322 321 321 321 322 323 327 327 325 323 323 329 330 332
300 301 302 309 311 311 312 312 312 312 312 313 313 314 316 310 315 322 318 318 312 310 317 316 316 317 317 318 319 319 319 321 321 320 321 323 325 326 329 323 321 322 328 331 331
299 299 299 300 301 302 305 307 309 310 310 308 310 311 315 311 321 321 317 315 311 310 315 315 315 316 318 319 319 319 320 320 321 321 321 326 326 324 331 323 328 330 329 330 330
299 299 299 299 299 299 300 302 305 307 309 309 307 311 314 318 319 319 316 315 310 310 317 316 316 318 320 321 320 319 320 321 320 321 323 324 326 331 333 333 331 331 332 331 330
301 299 299 299 299 299 299 300 302 304 306 307 307 309 318 317 317 317 316 314 311 312 317 316 318 320 320 321 320 321 321 321 320 321 324 325 327 326 333 333 332 331 330 328 327
306 303 300 299 299 299 299 299 299 301 305 306 307 311 316 316 316 316 320 316 314 316 318 318 319 319 320 322 320 320 321 321 322 322 325 324 323 323 331 331 331 330 328 326 327
307 306 305 300 299 299 299 299 300 302 304 303 307 311 315 310 316 317 318 319 317 317 318 318 318 318 319 320 321 321 320 321 323 324 325 323 326 324 326 331 330 326 326 324 325
307 306 306 305 300 299 299 299 300 303 304 307 309 315 315 313 316 314 317 319 317 317 317 317 317 318 319 321 320 320 320 322 324 324 327 326 326 324 327 330 329 327 327 329 328
305 307 306 305 305 300 299 299 301 309 315 313 314 315 315 314 316 315 316 319 317 317 317 318 317 319 319 320 321 321 322 323 325 325 325 327 328 327 327 328 327 327 328 327 328
303 305 307 306 305 303 299 300 315 321 319 318 317 313 313 317 315 315 315 319 318 318 319 318 319 319 320 321 320 320 322 324 324 325 324 326 329 331 328 329 328 326 325 325 325
302 304 307 306 306 305 301 308 313 317 316 313 316 316 316 318 316 316 315 320 319 320 320 320 322 321 321 322 321 320 320 322 323 324 323 321 328 329 329 330 326 327 326 325 325
302 301 305 306 305 305 303 305 314 316 315 311 311 312 313 315 317 318 315 320 320 321 322 322 323 323 321 321 321 320 320 320 322 323 323 322 321 328 329 328 328 327 328 327 324
302 301 304 306 304 307 307 309 309 314 316 310 313 316 314 315 316 317 317 318 320 321 321 321 322 322 321 320 320 320 320 321 323 322 321 323 324 324 327 327 329 328 328 327 326
303 301 301 305 308 311 315 313 316 317 311 311 313 316 317 317 317 317 316 317 319 320 321 321 322 321 322 319 320 320 322 322 322 321 323 323 324 322 323 324 327 329 328 328 326
302 301 301 301 306 307 312 314 316 317 311 311 318 318 318 318 317 317 316 317 318 319 321 321 321 321 322 320 321 321 322 323 323 322 325 325 323 322 323 323 324 327 328 328 327
302 302 301 302 307 307 308 313 316 313 310 311 318 320 318 319 318 318 318 318 319 320 322 320 320 321 321 320 321 321 322 323 323 324 327 324 324 324 323 323 323 326 325 325 327
302 302 302 302 305 308 308 313 310 308 311 314 314 318 320 319 319 318 318 318 319 319 321 321 321 321 321 320 321 321 322 325 326 330 328 326 326 322 323 323 322 322 324 325 328
302 302 302 303 304 307 307 310 311 308 309 311 313 317 319 320 319 318 318 320 320 319 321 322 321 320 321 321 321 322 322 322 323 327 329 328 327 322 323 322 321 321 322 322 322
303 303 303 303 303 306 307 310 311 308 309 311 311 313 316 321 320 319 318 319 319 319 320 321 322 321 321 321 321 321 322 326 325 327 328 324 325 324 323 322 321 320 321 322 324
303 304 304 303 303 306 308 309 309 309 309 310 311 312 313 315 319 321 319 319 320 320 319 320 322 322 322 322 321 321 322 323 326 325 330 328 325 324 324 322 322 322 320 320 322
304 304 304 303 305 305 308 307 308 309 308 310 311 312 312 315 318 322 320 320 319 320 319 320 321 322 321 321 321 321 322 322 325 326 327 332 326 323 323 322 322 321 321 320 321
304 303 304 304 305 306 306 309 307 308 309 310 312 313 314 317 321 321 322 321 319 321 319 320 320 322 323 322 322 321 321 322 324 326 328 332 326 324 323 322 321 321 320 320 321
303 304 305 305 305 307 308 310 309 306 308 308 310 312 313 316 318 321 320 320 320 320 319 321 321 321 323 322 323 323 321 321 325 328 327 327 325 323 323 322 322 321 321 320 321
302 302 305 306 306 308 308 308 308 308 307 308 311 312 313 314 316 318 318 319 320 320 319 322 322 321 321 321 321 321 321 320 321 326 327 326 326 325 324 322 321 321 322 321 320
299 304 305 306 306 307 308 310 308 309 309 308 310 310 312 313 317 318 320 320 322 321 320 322 322 321 321 321 320 320 320 321 320 320 321 322 323 322 323 321 321 320 321 321 321
301 302 305 306 308 307 308 310 310 310 309 308 309 311 313 313 315 316 318 317 316 321 322 322 323 322 324 322 320 320 320 320 320 321 321 321 323 322 322 321 320 321 320 320 322

GFSSW_850_thetae_039.txt.gz
Theta_e
305 307 309 310 314 313 312 311 312 314 314 316 316 315 314 315 317 314 313 318 320 319 311 312 316 314 315 316 317 317 311 313 316 319 318 322 322 325 326 324 325 328 331 328 331
300 300 300 301 302 307 309 309 309 309 308 309 310 310 311 313 315 316 316 316 319 315 311 315 316 316 316 317 317 314 311 314 318 318 318 319 325 328 325 326 325 329 330 330 330
300 299 299 299 300 300 301 301 303 305 306 306 307 307 307 310 314 322 320 318 317 312 313 317 316 316 316 317 317 317 313 315 319 320 321 323 326 330 324 323 322 326 330 329 330
300 300 300 299 299 299 299 300 300 302 304 305 305 305 305 310 318 321 318 316 315 311 313 315 315 315 314 314 317 315 317 318 319 320 321 323 327 329 325 325 324 328 329 329 330
303 301 300 299 299 299 299 300 299 300 301 303 304 306 305 315 315 315 319 317 314 311 310 315 315 315 314 317 319 317 317 319 320 320 322 327 331 332 332 331 329 330 330 331 329
307 304 301 300 299 299 299 299 299 299 300 301 305 305 309 317 312 318 318 316 314 311 311 317 316 316 319 319 318 319 320 320 320 320 324 325 326 329 332 331 331 330 330 329 327
306 307 305 301 300 299 299 300 300 300 300 302 305 307 309 305 311 316 319 320 314 312 315 317 317 318 318 317 320 320 318 318 318 319 323 322 322 326 331 332 331 328 327 327 325
306 306 306 306 303 300 299 300 300 300 300 303 305 309 312 306 308 309 316 319 318 315 316 317 318 318 318 318 318 318 317 317 317 322 323 322 325 322 329 330 329 327 325 327 326
304 305 305 306 305 303 300 300 300 299 301 308 308 312 315 315 313 309 316 317 319 317 316 317 318 317 317 316 316 317 316 316 318 322 324 323 325 324 326 330 326 326 322 324 327
302 302 304 304 306 305 301 300 301 300 307 316 314 314 312 314 313 316 314 316 319 318 317 317 317 314 313 314 317 318 317 320 322 324 325 326 325 323 325 329 328 325 326 326 326
302 302 302 303 305 305 302 301 310 317 318 319 316 308 312 313 317 316 315 316 319 318 316 317 315 314 314 315 318 318 318 319 321 323 325 327 325 321 322 328 329 325 326 328 325
303 301 302 303 305 305 304 302 308 311 313 316 316 318 316 316 317 317 315 315 319 318 316 316 317 316 317 318 319 320 319 317 319 323 323 325 325 321 323 327 326 325 326 328 325
304 302 301 301 304 305 304 302 300 308 313 312 312 312 310 311 315 316 316 315 319 318 317 317 318 318 319 320 321 320 319 318 319 321 321 321 329 329 327 325 328 325 325 326 326
303 303 301 300 304 309 307 312 308 312 315 311 310 310 310 310 314 314 317 315 319 319 318 318 319 319 321 322 320 319 318 319 320 320 320 319 320 330 327 328 327 326 325 324 327
303 303 302 300 306 308 312 315 315 315 303 310 310 311 312 312 315 315 315 316 319 320 318 319 319 320 321 321 320 319 319 321 321 321 320 320 320 320 327 329 327 325 326 326 325
302 303 302 301 303 306 309 314 316 316 315 311 316 316 316 313 314 316 315 316 316 319 319 318 320 319 319 320 319 318 322 322 321 320 319 319 322 321 327 327 328 326 327 326 325
303 302 302 302 301 306 307 311 314 311 307 307 316 316 316 317 315 315 315 315 315 316 318 318 318 318 319 319 319 318 320 321 320 320 319 325 325 322 319 321 322 327 327 326 326
304 302 302 302 301 307 309 310 312 308 308 311 311 316 318 316 317 317 316 315 314 316 317 318 319 319 319 319 320 319 319 321 323 322 324 324 325 323 322 321 322 327 327 327 326
304 303 302 302 301 303 307 309 309 308 308 308 308 309 311 318 318 317 316 316 316 315 317 318 319 319 318 319 319 319 319 319 321 327 325 325 325 324 321 320 320 321 325 326 324
304 304 303 303 302 303 307 308 308 308 308 308 307 309 310 314 318 318 318 317 316 316 316 318 320 319 319 319 318 318 320 321 322 326 326 326 326 325 323 320 319 317 320 323 324
304 304 303 303 303 303 308 306 307 307 309 309 308 307 308 311 312 313 315 318 316 316 317 316 317 319 320 320 319 319 319 321 323 324 324 322 322 320 322 320 318 316 320 322 323
305 305 303 303 304 304 305 306 307 307 307 309 309 309 309 310 311 312 320 320 319 317 318 317 318 318 318 320 319 318 319 319 323 324 324 323 322 320 320 320 320 319 319 321 323
305 304 304 303 305 304 305 306 306 307 307 308 309 308 309 310 310 320 321 319 319 318 320 317 318 318 319 318 318 319 319 320 320 320 322 321 323 318 319 319 320 319 320 320 322
304 303 304 304 304 303 304 306 306 306 308 307 308 308 309 310 311 317 319 318 318 318 319 319 318 317 318 318 319 320 320 319 319 320 321 320 322 322 322 321 319 321 320 320 320
303 301 304 305 304 304 304 305 306 307 307 307 307 307 308 308 309 313 317 318 318 317 319 321 320 317 317 318 320 321 321 320 320 321 323 323 323 322 322 321 321 321 321 321 320
300 301 304 305 305 305 306 305 305 307 306 308 306 307 308 308 308 310 317 319 319 318 318 320 320 318 319 318 319 319 320 320 319 319 323 322 322 321 322 320 320 320 321 321 320
305 303 304 305 306 306 305 306 306 306 307 307 307 306 307 308 310 316 316 317 318 316 313 318 318 319 318 318 318 318 319 319 319 319 319 321 321 321 320 320 320 320 320 320 321

GFSSW_850_thetae_045.txt.gz
Theta_e
300 300 299 300 299 299 299 300 300 300 301 301 302 303 304 305 311 311 314 315 316 313 318 312 311 309 311 315 315 315 310 309 311 313 315 321 323 326 325 325 327 328 330 329 328
303 302 301 300 299 299 299 299 300 299 300 300 301 302 303 303 306 311 314 317 318 318 316 312 313 314 315 315 314 311 308 311 310 313 316 320 324 326 326 324 327 327 329 328 328
300 302 304 304 301 301 300 299 299 299 299 300 300 301 302 302 305 314 319 317 316 317 316 310 315 316 315 315 314 312 312 311 314 315 315 325 326 325 321 321 323 325 329 328 327
302 301 305 304 303 303 301 300 299 299 299 299 299 300 301 302 308 320 317 317 317 316 315 311 315 315 311 312 314 313 313 313 315 316 322 325 326 327 324 323 322 323 327 328 328
303 301 302 305 305 304 302 301 301 299 299 299 299 300 301 307 305 309 318 315 316 316 314 310 314 314 312 312 314 313 315 318 318 318 321 326 329 330 328 328 327 327 328 328 327
299 300 300 303 304 304 303 300 302 300 299 299 299 299 305 311 306 307 308 308 315 316 314 310 314 315 315 314 315 317 317 316 317 322 329 329 329 329 329 328 327 328 328 328 328
300 302 300 301 301 303 301 300 300 300 300 299 299 300 306 303 305 305 312 316 318 318 314 312 310 316 316 316 317 317 315 313 315 317 325 327 327 328 328 329 328 329 329 328 329
301 299 300 302 302 301 301 300 300 299 300 300 299 304 305 304 305 304 306 317 318 318 316 313 312 315 315 317 315 315 314 315 315 320 320 319 321 322 329 329 329 328 327 327 325
304 304 301 301 302 300 299 300 300 300 300 300 300 307 308 306 309 314 313 307 318 315 317 315 314 315 315 313 313 313 313 315 315 316 320 319 321 320 330 330 328 327 326 324 324
304 304 304 303 302 301 299 300 301 302 301 300 310 308 304 306 311 314 316 315 308 314 316 317 316 312 310 310 312 312 315 314 315 315 321 321 320 319 330 330 328 326 324 323 324
304 305 305 304 304 302 300 302 303 312 309 308 311 307 309 313 314 315 316 314 312 316 315 314 313 313 312 312 313 314 315 314 313 313 319 321 320 319 323 328 326 326 324 323 324
304 304 304 304 304 303 301 304 305 305 306 307 307 308 309 311 314 312 316 312 313 314 314 314 315 313 313 313 313 314 314 314 314 315 317 319 321 319 321 327 327 324 324 323 324
304 304 304 304 304 303 302 307 307 307 308 309 305 304 305 309 313 311 312 314 313 315 314 315 315 314 314 314 315 315 315 315 316 315 319 322 321 322 320 324 327 327 325 323 323
304 304 303 303 304 302 306 308 308 308 307 305 309 306 307 310 314 309 311 315 313 314 315 314 316 315 315 315 314 315 315 316 317 316 318 317 319 316 321 321 324 326 327 325 324
304 304 303 303 303 303 304 306 307 310 297 303 309 307 309 309 308 311 307 313 312 317 316 318 315 314 315 316 315 316 316 317 317 315 317 317 315 315 322 323 323 323 325 326 327
304 304 304 303 303 304 303 303 309 312 304 306 308 311 311 309 309 311 311 312 315 313 316 316 316 314 314 315 315 316 317 316 317 316 319 317 316 316 321 322 322 322 323 324 326
304 304 304 304 303 303 302 305 313 311 305 304 308 310 310 310 309 313 311 313 314 315 315 316 317 316 317 317 316 316 316 317 317 318 320 317 320 318 316 318 321 321 323 324 325
303 304 304 304 303 303 302 308 312 308 307 306 305 305 313 310 310 312 312 311 311 313 313 314 315 316 316 317 317 315 315 316 320 319 317 320 322 319 317 318 320 321 323 324 325
302 304 304 304 303 302 302 308 309 310 308 307 307 304 307 309 314 312 312 312 311 311 314 313 314 314 315 315 316 316 316 315 316 318 319 318 318 317 318 317 317 319 324 324 325
302 304 305 304 303 302 302 306 308 308 307 307 308 307 308 307 311 314 315 314 314 311 312 314 316 315 315 315 314 316 315 317 316 319 323 320 322 319 318 317 318 316 318 323 325
302 304 304 305 303 303 302 303 305 305 306 306 307 307 307 308 308 309 312 316 317 317 313 312 314 314 314 316 315 315 315 317 316 316 318 319 317 316 317 317 317 315 319 322 323
301 303 304 304 303 303 302 302 304 305 305 306 306 308 308 308 307 308 309 310 317 317 318 318 313 314 315 315 314 315 315 316 318 318 318 316 319 317 316 316 316 317 320 320 321
300 301 303 304 304 303 303 302 303 305 305 306 307 307 307 307 307 308 309 316 318 317 317 318 319 317 315 315 314 313 313 314 317 316 318 319 318 317 316 317 317 317 318 320 319
299 302 302 304 303 303 303 303 303 303 303 305 306 305 306 306 306 306 309 310 317 317 318 318 319 321 322 319 318 318 317 315 316 316 316 318 318 318 318 316 316 318 320 318 320
299 299 303 304 304 303 303 303 304 304 304 305 304 305 305 305 306 306 307 311 315 316 317 317 317 317 316 315 316 316 319 318 316 316 317 317 317 317 317 317 316 320 320 318 319
298 301 302 304 304 304 304 304 304 303 304 305 305 306 305 305 305 306 306 307 310 314 316 316 314 315 314 315 314 315 315 316 317 315 315 316 316 316 317 318 317 318 320 320 319
299 300 303 304 305 305 304 304 304 304 303 304 304 304 304 305 305 305 305 305 308 314 313 314 314 314 313 312 313 313 315 315 316 316 317 318 317 316 317 317 317 319 319 320 320

GFSSW_850_thetae_048.txt.gz
Theta_e
304 301 300 300 301 300 300 299 300 299 299 300 300 300 301 301 304 305 309 312 314 315 316 314 311 309 314 315 315 314 309 309 312 311 313 319 321 324 325 325 327 328 328 328 327
306 305 303 301 300 301 301 301 300 299 299 299 300 300 300 300 303 306 311 312 316 314 317 314 312 309 311 314 314 310 308 310 309 310 313 317 321 324 325 324 326 327 326 327 326
302 304 304 304 303 300 300 301 301 300 299 299 299 300 300 300 303 310 319 316 318 318 316 313 314 314 315 313 312 309 311 310 312 314 313 315 324 326 323 321 322 325 327 326 326
301 301 302 302 303 303 300 301 301 301 301 300 299 299 300 301 305 317 317 317 317 317 316 311 314 315 311 311 313 312 311 312 314 316 315 322 325 324 321 323 323 323 327 327 326
300 300 300 301 300 302 301 301 301 301 300 301 300 299 299 304 303 308 317 314 314 317 316 311 313 313 310 310 312 311 313 316 317 316 316 324 326 326 327 326 326 326 327 327 327
300 300 300 301 300 299 300 300 302 301 300 300 301 299 300 308 304 305 305 308 309 310 316 312 312 314 313 312 313 315 315 315 315 316 327 326 328 330 327 327 327 327 328 327 326
303 304 303 301 300 299 299 299 300 302 300 300 301 300 302 301 303 303 305 311 312 313 315 313 310 315 315 315 316 316 315 313 314 315 324 327 324 326 327 328 327 327 330 328 326
304 304 304 304 304 300 299 299 300 301 300 301 300 302 303 302 303 303 304 308 316 315 316 313 311 312 314 315 314 314 313 314 314 317 320 323 319 318 327 328 328 328 329 327 325
303 304 304 304 304 304 301 300 299 300 301 301 300 303 303 303 304 312 314 308 314 317 316 314 313 314 314 312 312 310 312 313 314 314 318 318 319 320 328 328 328 327 328 328 326
303 304 304 304 304 304 304 301 301 310 304 301 308 307 302 302 308 312 315 316 312 313 314 315 315 310 309 311 313 313 313 312 313 315 318 319 318 318 328 328 328 327 326 326 324
304 304 304 304 304 304 304 302 302 306 305 309 308 305 307 309 312 315 315 314 312 315 314 314 312 313 311 311 311 311 314 313 312 312 315 313 314 315 325 328 327 327 325 324 324
304 304 304 304 304 304 303 305 305 305 306 305 304 308 307 312 311 307 311 312 311 313 313 312 314 312 312 311 312 313 313 312 312 313 313 313 316 316 320 325 327 327 327 324 323
304 304 304 303 303 303 302 306 306 305 307 307 306 306 306 308 309 307 313 313 312 313 314 314 314 312 313 312 313 312 312 313 313 313 315 319 318 320 320 321 325 328 328 326 323
303 304 304 304 303 303 304 306 305 306 307 305 308 307 306 306 310 306 309 312 312 313 314 315 315 313 313 314 313 313 312 314 314 315 317 317 318 315 316 320 322 324 327 327 326
303 303 304 304 304 303 303 303 303 308 297 303 308 307 308 307 307 310 308 311 312 314 315 315 314 315 314 314 313 314 313 314 315 315 315 315 315 314 321 320 320 319 323 325 326
301 303 304 304 304 304 303 302 305 309 304 303 307 310 311 310 308 311 311 312 313 314 315 314 314 313 315 314 313 315 316 316 315 314 316 316 315 315 316 320 319 319 321 322 323
300 302 303 304 304 304 303 302 309 309 306 305 305 308 309 310 309 310 309 311 312 313 313 314 316 316 315 316 314 315 314 317 317 317 319 315 314 316 315 314 317 317 320 322 322
300 301 303 304 304 304 303 306 309 308 307 306 307 307 309 309 308 311 308 308 310 312 313 313 313 315 315 316 316 314 314 316 320 319 317 317 319 319 316 316 317 319 321 321 322
299 301 302 303 304 304 302 305 306 307 307 306 306 306 308 308 311 311 310 309 310 312 314 313 314 313 314 315 316 316 315 315 315 316 317 316 316 316 317 316 316 317 319 320 321
299 301 302 303 304 304 302 303 306 306 306 306 306 307 307 307 308 310 314 315 313 310 312 313 315 314 315 314 314 315 314 316 314 319 321 317 319 317 318 317 315 314 316 319 323
299 301 302 303 304 302 304 303 303 303 304 306 307 307 306 306 306 306 309 316 316 316 310 311 313 313 314 315 314 314 315 315 315 314 317 318 316 315 316 315 316 315 318 318 320
299 302 302 304 304 300 303 302 302 303 305 305 305 306 307 307 306 306 308 314 317 317 317 317 312 312 313 313 313 313 315 314 316 317 316 313 317 316 314 314 315 316 319 320 320
300 300 302 304 305 304 303 303 301 304 305 305 306 306 306 305 305 307 310 313 311 317 317 317 318 317 316 314 315 316 314 315 313 313 314 316 316 315 314 313 316 316 320 319 318
299 300 302 303 303 304 304 303 302 302 302 303 304 305 305 306 306 306 307 308 309 316 316 316 318 316 320 319 317 318 315 315 317 313 314 315 315 314 316 315 314 317 320 320 320
298 299 302 304 303 304 304 304 303 303 302 303 303 304 304 305 304 305 306 307 308 314 315 314 314 316 318 317 315 315 313 314 314 315 316 316 314 314 314 314 316 319 319 319 320
298 299 301 303 304 304 304 304 304 303 303 304 304 305 304 304 304 304 304 305 305 307 314 313 312 314 314 316 315 313 313 313 315 315 315 315 314 312 314 315 315 317 318 319 319
299 299 301 302 304 304 304 304 304 303 303 303 303 303 303 304 304 304 304 304 304 305 308 312 313 313 313 312 312 311 311 313 313 312 314 315 314 313 314 314 314 317 318 319 320

GFSSW_850_thetae_054.txt.gz
Theta_e
301 301 301 301 301 304 305 305 306 307 304 301 301 301 301 301 302 302 305 306 306 309 313 316 316 313 314 316 316 316 318 318 318 320 320 319 321 322 325 324 328 329 329 331 329
300 300 300 300 300 301 302 303 303 304 305 302 302 301 301 301 301 303 308 311 306 309 312 315 315 313 314 315 316 317 319 319 318 320 320 320 320 320 323 324 326 328 330 329 328
299 299 299 299 299 299 300 300 300 300 301 301 302 302 302 301 303 308 315 317 316 309 314 315 313 312 314 315 316 317 318 318 318 318 319 320 320 320 323 324 325 327 329 329 329
299 300 299 300 300 300 300 300 300 300 300 300 301 304 304 301 306 307 312 315 312 315 313 313 313 312 314 316 316 317 317 316 317 318 319 320 320 323 324 324 325 326 327 328 329
302 300 301 301 302 302 302 301 300 300 300 299 300 302 305 307 304 304 303 307 316 314 313 315 314 313 315 316 317 317 318 317 317 317 318 319 321 323 324 325 326 328 328 328 329
301 303 302 302 302 302 302 302 301 301 301 300 300 300 303 307 308 304 303 304 310 316 317 314 314 314 315 316 317 317 317 318 318 318 319 320 321 327 323 328 329 329 328 328 328
304 302 302 302 303 303 303 303 302 302 301 301 300 300 305 306 310 311 302 303 302 309 313 316 315 314 315 317 315 316 318 318 319 318 319 321 322 327 324 329 329 330 328 327 327
302 302 302 303 303 303 304 304 304 302 301 301 303 303 304 305 311 311 308 303 303 308 310 312 313 313 315 316 317 317 318 319 319 319 319 323 321 322 325 329 329 329 328 327 326
302 301 301 303 303 302 303 303 303 302 303 304 306 306 305 303 303 309 307 306 304 304 311 312 313 314 315 317 318 319 319 319 319 319 320 324 322 323 326 327 327 329 329 327 327
301 299 301 303 303 303 303 303 302 303 307 304 307 307 304 304 308 312 314 315 310 307 313 314 314 315 315 317 319 319 319 319 319 318 319 322 323 322 323 326 327 328 329 328 327
298 298 302 303 303 303 303 307 306 307 304 305 307 307 307 310 308 311 311 312 312 310 315 316 317 317 316 316 318 318 318 318 317 317 318 319 320 321 322 324 327 328 329 329 327
297 299 301 303 302 303 305 306 304 303 304 305 306 306 306 307 308 310 313 313 315 313 314 318 318 318 318 317 316 316 317 317 317 317 317 318 320 321 322 324 327 328 329 329 328
297 299 301 302 302 304 305 305 304 303 305 307 308 308 308 306 306 307 313 312 315 317 312 317 316 317 317 317 317 317 317 317 318 317 318 319 320 321 322 324 325 326 327 329 329
296 299 300 302 305 304 306 304 303 302 310 308 308 309 308 307 307 305 307 313 313 314 314 315 315 316 318 317 317 318 317 317 318 318 317 319 321 321 322 322 323 324 328 328 329
296 298 299 301 303 305 305 303 302 306 308 305 308 308 308 307 307 309 308 306 310 314 314 317 314 316 316 317 316 317 317 318 318 319 318 318 319 320 321 322 321 322 324 327 328
296 297 298 302 302 303 304 304 305 312 307 306 308 308 310 309 308 310 309 307 308 313 316 316 314 314 316 316 316 317 317 318 319 318 320 318 319 319 320 322 321 321 322 324 327
296 297 298 300 304 302 304 305 311 307 307 309 308 309 309 309 311 310 311 308 310 309 314 316 315 317 316 315 317 317 317 320 320 321 320 320 320 320 322 322 321 321 321 323 325
296 297 297 300 302 303 303 307 308 306 308 308 308 308 309 310 311 311 311 310 310 310 310 312 315 315 317 317 317 318 318 319 320 322 321 321 322 322 322 321 321 321 321 322 325
295 298 298 300 300 302 303 307 305 306 307 308 308 308 308 309 309 311 312 312 310 312 311 312 313 315 317 317 317 318 319 319 319 321 323 323 322 321 321 321 322 321 322 322 324
296 298 299 300 300 303 304 304 305 306 308 307 308 308 308 309 309 310 313 314 316 312 314 315 315 315 316 317 318 319 319 320 320 321 322 321 322 322 321 321 321 321 322 321 322
297 300 300 300 301 303 305 305 305 304 305 307 308 308 308 308 308 308 311 312 312 318 315 314 317 317 316 318 319 319 320 319 320 321 322 322 322 321 322 322 322 322 321 322 322
298 300 300 300 303 302 303 304 304 304 304 305 306 307 307 308 308 308 307 311 311 314 317 313 316 318 316 316 317 319 319 319 320 321 321 323 322 321 320 319 319 320 320 320 321
298 298 299 302 303 303 303 304 305 305 305 305 306 307 307 307 307 307 308 310 309 312 317 317 316 314 315 315 316 319 318 319 319 319 321 324 321 319 319 319 319 320 320 320 320
298 300 299 300 301 304 304 305 305 304 305 305 306 306 307 308 308 307 307 308 307 309 310 315 317 316 314 315 317 319 317 316 319 321 320 320 319 319 319 319 319 319 319 320 319
297 299 300 302 301 302 303 304 305 304 304 304 305 305 306 308 308 308 307 308 307 307 313 315 316 315 314 314 314 315 316 316 316 317 318 318 317 317 316 316 318 318 318 318 319
296 297 298 300 301 302 303 303 304 304 305 305 305 306 306 307 308 308 307 307 307 308 310 312 312 313 312 312 314 315 314 314 315 314 315 316 317 317 315 315 315 315 316 317 318
296 296 298 299 301 302 303 303 303 305 305 304 305 305 307 307 306 306 306 306 307 308 308 310 315 313 311 313 312 312 313 314 315 315 314 314 314 313 313 314 314 314 316 318 318

GFSSW_850_thetae_057.txt.gz
Theta_e
301 301 300 300 300 301 300 301 301 302 304 305 306 303 302 302 302 303 309 310 312 308 308 318 320 318 316 316 317 319 321 321 321 321 322 322 321 321 323 323 325 327 328 330 333
299 299 299 299 299 300 300 300 300 300 301 301 302 303 303 303 303 305 310 309 310 306 308 318 319 317 316 317 318 319 320 320 322 321 322 321 321 321 322 323 324 325 328 332 331
299 299 299 299 299 300 300 300 300 300 300 302 301 301 303 304 309 312 314 308 314 315 309 316 318 318 317 317 318 319 319 321 321 319 321 321 321 321 321 322 324 324 325 331 332
302 300 299 300 300 301 301 300 300 299 300 300 301 302 302 305 310 310 305 304 309 310 315 316 317 318 318 318 318 319 319 319 320 319 319 321 321 322 322 323 326 326 327 330 330
304 301 302 301 300 301 300 300 300 300 301 301 300 301 301 310 312 310 308 305 315 316 316 316 317 317 318 318 318 319 319 319 318 318 319 320 321 321 322 322 326 327 329 329 328
299 305 303 301 301 301 300 300 300 301 302 301 300 301 306 310 310 308 310 310 310 318 317 316 317 317 316 317 318 318 319 319 319 319 319 320 321 321 322 323 327 328 330 329 328
300 300 301 301 301 301 300 299 301 302 302 302 301 301 307 307 308 309 314 313 307 306 312 319 317 315 316 318 318 318 319 320 320 320 320 320 321 321 321 323 326 329 330 330 329
301 301 301 299 301 301 300 301 302 302 303 302 302 308 308 306 306 308 309 314 313 307 309 314 316 317 316 317 318 319 319 320 321 321 320 320 321 322 323 326 326 328 329 330 328
300 300 298 299 301 301 301 302 303 303 302 304 308 310 309 307 305 306 309 312 312 308 306 311 313 315 317 318 320 321 321 321 322 322 321 321 322 322 324 325 325 327 329 329 329
301 299 298 298 301 301 302 306 307 307 309 310 309 311 310 306 308 311 312 310 314 310 308 309 313 316 317 320 321 322 322 322 322 323 321 320 322 322 324 324 325 326 328 330 329
299 297 297 299 301 302 305 309 308 311 308 307 309 310 309 310 309 311 315 315 314 313 311 312 314 316 318 320 320 321 322 322 322 321 320 321 321 323 323 322 324 327 327 329 329
299 296 297 298 301 302 307 308 307 306 307 307 307 307 307 307 307 309 314 314 316 317 313 313 315 314 316 318 318 319 320 321 321 320 319 319 319 321 322 323 323 326 327 329 330
298 296 296 298 301 305 307 307 307 307 308 309 309 309 309 309 308 308 312 312 317 315 317 316 316 316 317 319 319 320 320 320 321 321 320 319 319 321 322 322 322 324 325 326 329
298 298 296 298 304 306 307 307 307 307 312 309 310 311 311 309 309 307 309 314 313 317 316 317 316 317 318 319 320 321 320 320 320 320 321 321 320 321 322 323 324 323 323 325 327
298 298 296 298 303 305 306 307 307 307 314 307 311 310 310 309 309 309 307 307 314 313 316 317 316 315 317 319 319 320 320 320 319 320 321 321 320 322 323 323 323 323 323 324 326
297 298 296 300 303 305 305 307 309 315 312 308 309 310 310 311 310 309 310 309 309 312 313 316 316 317 316 316 318 318 318 319 320 321 323 322 321 322 323 323 323 323 322 323 326
297 297 296 300 302 305 306 308 313 311 309 310 310 310 310 312 312 311 312 311 309 311 313 313 316 317 316 316 317 318 319 322 322 324 323 322 322 321 323 323 323 322 322 323 324
296 297 297 300 301 304 306 310 310 307 308 310 309 309 310 311 313 312 313 313 310 312 314 313 316 316 317 316 317 318 319 321 323 326 324 322 323 322 323 323 322 322 322 322 324
296 297 299 301 301 302 306 310 307 307 308 308 308 308 309 311 312 312 313 315 312 311 312 313 312 315 317 317 317 319 320 318 321 322 326 324 323 324 323 322 322 322 321 322 323
297 298 299 301 302 304 306 306 307 307 308 307 306 308 310 311 312 312 315 315 315 313 312 313 313 313 315 317 317 318 319 320 321 323 324 324 325 325 322 322 323 323 323 322 322
297 299 301 302 302 304 307 306 305 305 307 307 308 309 309 310 310 311 314 315 314 315 314 313 316 315 316 317 318 317 319 321 321 322 324 325 324 323 324 323 323 324 323 323 323
297 300 301 303 303 303 305 305 305 306 305 306 307 309 309 309 310 310 311 311 312 313 319 315 316 317 319 317 318 319 319 321 323 325 323 326 324 323 322 321 321 321 322 322 322
297 299 299 302 305 305 304 304 304 305 306 306 306 307 308 309 309 310 310 310 309 311 314 316 316 317 319 318 318 318 319 320 322 322 324 328 324 322 321 320 320 320 321 321 321
298 302 299 302 302 304 304 305 305 304 306 305 306 307 308 308 308 309 309 309 309 309 309 314 318 316 317 318 318 319 320 320 321 323 323 324 323 322 320 320 320 319 320 320 320
297 300 301 303 303 304 304 306 305 305 305 305 306 306 307 308 308 309 310 310 309 307 310 315 319 319 316 317 317 318 319 319 319 320 321 321 321 320 320 319 318 317 316 316 318
296 298 299 300 302 303 304 304 305 306 306 305 306 306 307 307 308 309 309 310 310 309 310 314 316 315 317 315 315 316 317 317 317 317 317 318 318 318 318 317 316 316 314 315 316
296 297 298 300 302 303 304 303 303 304 305 306 306 307 307 307 307 308 308 308 309 310 311 311 312 315 316 314 314 314 315 316 317 317 317 318 318 315 315 314 315 315 316 317 318

GFSSW_850_thetae_063.txt.gz
Theta_e
300 299 298 298 298 298 298 298 298 298 299 299 300 300 301 302 305 307 307 308 308 309 310 311 310 315 315 320 319 319 315 314 315 317 319 320 321 322 322 322 324 323 323 325 333
299 298 298 298 298 298 298 298 298 298 299 299 299 299 300 300 303 308 312 309 309 309 310 310 309 317 317 318 319 315 312 314 315 317 318 318 321 321 320 322 322 324 329 331 331
300 299 298 297 298 298 298 298 298 298 298 299 299 299 300 300 302 311 309 308 311 309 308 308 311 312 319 318 318 317 315 315 317 318 319 318 318 321 319 320 322 327 330 329 330
301 300 298 298 298 298 298 298 298 298 298 298 299 300 300 301 310 311 311 312 311 309 315 316 311 310 315 318 319 316 316 317 317 318 318 317 319 319 320 321 323 325 328 331 332
303 301 299 298 298 298 297 297 298 298 298 299 300 301 302 306 306 306 310 311 311 312 318 315 312 313 315 317 318 317 317 317 318 318 318 318 316 318 319 321 323 325 325 329 330
302 302 301 298 297 297 297 297 298 298 299 302 302 302 305 307 306 309 309 310 311 309 313 317 315 315 317 317 317 318 318 317 317 317 318 318 316 319 319 320 320 326 326 327 329
303 302 300 298 296 296 296 297 298 298 302 305 303 304 307 303 304 306 309 310 310 312 308 309 309 309 314 317 318 317 316 316 315 316 316 319 316 315 318 319 320 325 327 329 329
302 301 300 298 296 296 296 297 298 299 305 308 307 306 307 307 308 308 307 309 309 310 310 310 309 308 313 316 318 317 315 315 316 317 318 317 318 316 319 319 319 320 327 329 329
300 301 301 298 295 296 296 301 308 308 307 309 308 309 311 311 309 310 309 307 309 310 312 312 310 309 311 314 317 316 315 316 317 318 318 316 318 316 320 319 320 320 327 329 330
300 300 300 298 295 296 297 308 307 308 310 311 311 312 312 311 310 310 310 312 309 312 315 313 311 307 311 313 317 317 316 316 317 318 318 317 317 318 319 320 324 324 324 329 330
300 299 298 296 295 297 306 308 307 309 308 308 311 313 312 311 309 308 311 313 313 315 316 313 309 307 308 313 315 316 317 318 316 319 322 320 318 318 317 319 322 324 324 325 330
299 298 297 295 295 304 308 308 308 307 307 307 306 307 308 307 309 308 309 314 315 317 316 316 313 311 311 311 315 316 316 317 317 319 321 320 318 317 317 316 319 323 324 324 329
298 298 297 295 295 305 306 307 308 307 306 307 309 309 310 310 310 310 309 314 315 316 317 318 316 314 314 312 311 316 316 317 318 319 319 319 316 318 318 319 319 321 324 324 329
298 298 297 295 298 305 306 307 306 307 308 310 311 311 310 310 310 310 309 309 314 314 318 318 316 315 317 318 315 313 315 316 317 318 318 318 317 318 319 319 318 318 321 325 329
298 297 297 296 296 300 304 305 306 308 311 314 312 312 312 310 311 309 308 309 310 316 316 318 318 318 318 317 317 318 316 317 318 320 318 319 317 317 318 319 318 316 321 324 328
298 297 297 296 300 303 303 305 306 311 312 309 311 311 312 311 312 310 309 309 309 309 315 315 315 317 318 318 318 317 318 318 317 319 322 320 318 317 318 320 320 319 320 323 326
298 297 297 296 295 300 302 304 309 310 311 310 310 311 310 310 312 311 311 307 305 306 308 312 315 314 316 317 316 317 318 320 322 322 321 320 320 319 319 320 320 320 320 323 323
296 296 297 296 295 300 302 306 308 309 312 311 310 309 309 309 312 312 311 311 306 307 309 311 317 313 313 313 318 318 317 321 323 323 322 320 320 319 319 320 320 322 323 323 324
296 296 296 297 299 300 302 304 306 306 308 309 309 308 308 308 311 312 312 312 312 309 309 314 315 314 313 315 316 318 318 316 319 320 324 324 322 320 319 319 319 320 323 325 326
295 295 296 297 300 301 303 302 304 305 307 307 308 308 307 309 310 310 315 316 317 314 310 312 314 314 314 315 316 317 316 319 320 325 326 323 324 324 322 320 321 319 318 322 325
296 297 297 300 299 301 302 302 302 303 304 306 307 308 308 309 310 310 314 316 314 314 313 315 313 313 313 315 317 318 319 319 320 321 323 325 325 323 320 320 320 320 321 322 323
296 296 300 301 300 302 301 301 302 302 304 305 306 308 308 308 309 310 310 313 311 311 315 313 316 314 312 312 314 316 318 319 324 325 323 322 326 323 321 318 317 318 317 319 321
296 296 296 299 303 300 301 302 302 302 304 305 306 307 307 306 307 308 309 311 310 310 311 310 315 317 316 316 317 317 316 317 319 320 325 326 325 323 322 321 317 315 315 318 320
295 297 299 299 299 302 303 303 303 303 304 304 304 305 306 306 306 307 309 310 310 311 309 309 314 317 319 319 319 320 319 317 317 321 322 325 326 324 323 322 320 314 316 319 319
295 296 298 300 299 300 301 302 303 306 305 304 303 304 305 307 307 308 308 308 309 309 311 312 314 316 315 315 318 317 318 318 319 319 324 324 324 323 322 321 320 316 318 319 319
295 295 297 298 299 300 302 302 302 302 305 305 306 305 305 306 307 308 310 310 312 311 312 311 313 314 315 316 316 318 317 318 320 321 321 322 322 322 319 319 319 317 318 319 318
295 295 295 298 298 298 300 302 303 303 303 304 306 306 307 308 307 308 308 309 309 310 310 312 312 313 315 313 315 316 316 320 319 318 319 321 321 321 321 319 317 317 317 317 316

GFSSW_850_thetae_066.txt.gz
Theta_e
300 300 300 299 299 298 298 298 298 298 299 299 299 299 300 300 301 302 305 310 310 307 309 309 310 311 315 316 316 318 313 312 313 314 316 317 316 318 321 325 325 325 327 324 330
301 300 299 298 297 298 298 298 298 298 298 298 298 298 299 300 301 302 310 309 309 309 308 308 310 309 316 316 319 315 313 315 313 314 314 315 315 317 318 322 322 325 324 327 331
302 299 298 297 297 297 297 297 297 297 298 298 298 298 299 300 300 307 308 311 311 309 311 312 306 310 314 317 316 314 317 314 314 315 315 315 316 317 316 318 321 328 331 333 331
302 300 298 297 297 297 297 297 297 297 298 298 300 300 299 300 300 312 310 309 310 309 314 316 314 311 309 315 317 315 316 315 316 316 316 315 316 315 317 319 321 323 326 329 329
303 301 299 298 297 296 296 296 296 297 298 298 302 302 301 302 302 306 310 310 311 311 310 315 314 311 310 312 315 316 317 318 317 316 316 316 315 316 316 319 322 326 329 328 329
302 301 300 298 296 296 296 296 297 297 298 300 305 305 303 303 303 307 308 309 310 310 309 308 313 309 312 314 314 317 317 317 317 317 316 315 314 315 317 318 324 327 329 330 330
299 300 299 299 297 296 296 296 297 300 307 304 306 307 305 303 303 304 306 308 309 310 311 309 309 308 309 314 316 316 315 315 315 315 314 315 313 314 317 318 318 325 327 329 330
301 299 297 297 297 296 296 297 300 307 309 305 306 308 304 305 309 308 308 307 308 309 310 310 310 309 308 314 315 317 315 315 315 314 315 314 315 316 318 318 317 318 324 327 328
301 301 299 297 296 295 296 299 300 306 307 308 308 308 309 310 309 309 311 310 307 309 309 310 311 309 309 313 314 315 315 315 316 316 315 315 317 317 318 318 316 317 321 328 328
299 299 298 296 295 295 301 303 304 310 310 310 310 311 310 310 309 309 309 312 310 309 312 314 312 306 305 311 316 316 316 314 315 316 316 316 318 318 317 317 317 318 317 326 329
300 299 298 296 295 300 307 306 307 308 307 307 311 311 311 311 311 309 309 313 310 314 314 313 309 311 305 308 313 314 315 315 315 315 316 316 317 319 318 315 314 319 319 326 329
299 299 298 296 295 302 306 306 307 307 307 306 306 306 307 307 308 306 308 311 314 314 315 315 313 311 309 309 310 314 316 316 316 316 317 317 318 317 316 316 316 321 320 326 328
298 299 298 296 294 302 304 305 306 307 305 305 306 307 307 306 307 308 309 313 314 316 316 316 317 315 313 312 311 311 312 316 316 316 317 317 317 317 316 316 317 320 323 322 328
297 298 298 296 297 301 304 305 306 306 307 308 310 310 309 310 309 310 310 311 313 314 316 316 316 316 316 315 315 318 312 312 315 316 318 318 319 317 316 316 317 316 318 321 326
297 296 297 297 295 299 302 303 304 307 306 310 311 311 310 309 310 309 309 308 308 315 315 315 317 318 317 316 316 317 319 318 318 317 316 319 317 318 316 317 317 315 317 319 323
296 297 297 297 296 298 301 302 305 309 307 310 311 311 311 310 311 308 308 308 308 309 314 313 316 316 316 316 317 318 318 318 316 316 318 319 319 318 316 318 318 318 318 318 325
296 296 297 296 296 295 300 303 305 308 306 310 310 311 311 311 311 310 308 306 306 306 306 308 313 315 317 317 317 317 319 320 322 320 321 320 320 320 318 317 318 318 319 319 325
297 296 296 296 295 296 300 303 305 305 308 308 307 308 309 309 310 311 309 306 305 305 307 308 311 311 316 316 317 317 319 321 326 325 322 319 320 318 318 318 319 319 319 318 326
297 296 296 295 297 297 300 298 302 303 306 306 306 308 307 308 308 311 310 310 308 305 307 310 314 312 314 315 315 316 321 318 319 320 322 323 321 321 319 317 317 317 319 321 327
296 295 295 295 298 299 300 299 301 303 303 303 305 308 307 308 309 309 311 315 317 314 308 310 313 312 313 314 315 317 318 321 322 325 325 323 321 324 320 319 318 317 317 323 327
295 296 295 297 298 299 300 298 300 300 300 304 305 305 307 308 307 310 315 315 314 314 313 313 312 311 312 314 316 317 319 318 320 322 325 325 327 324 321 318 318 319 320 320 324
295 293 296 299 299 300 300 300 300 300 301 302 305 306 306 306 307 307 310 312 310 311 313 311 314 317 314 312 313 316 319 319 322 323 321 323 325 323 322 318 316 319 319 319 320
296 296 295 295 299 298 299 301 300 301 301 301 305 304 304 305 305 307 309 311 309 310 310 309 312 316 314 314 313 315 316 319 320 319 323 325 325 323 322 322 320 317 318 319 319
295 294 296 297 297 299 300 301 302 302 302 302 303 304 304 305 306 305 307 310 310 310 309 309 312 316 318 319 317 319 318 317 319 322 321 320 323 324 322 321 319 318 318 318 317
295 293 295 297 299 299 300 300 300 301 302 302 303 304 303 304 306 306 308 309 310 310 310 309 310 314 314 315 314 316 318 317 319 318 321 321 322 324 323 318 319 318 318 317 316
295 294 296 296 297 298 298 299 300 302 302 303 304 304 305 306 306 306 309 308 311 310 310 310 310 312 313 313 311 314 318 318 318 320 318 319 322 321 320 319 318 318 316 315 314
295 295 294 294 295 295 298 299 299 299 302 302 303 303 305 306 307 307 307 308 308 308 309 310 311 309 312 312 312 315 315 317 318 320 320 322 321 320 318 318 316 316 314 312 312